Location: Arbon
(43.0005°N, 0.7472°E)
Time: 10:16:42
(UTC+00:00)

TIMED - Visible Passes

Search period start: 29 November 2020 00:00
Search period end: 09 December 2020 00:00
Orbit: 602 x 605 km, 74.1° (Epoch: 28 November)

Date Brightness Start Highest point End Pass type
(mag) Time Alt. Az. Time Alt. Az. Time Alt. Az.
29 Nov 5.9 16:54:51 10° SSE 16:58:05 21° E 17:01:20 10° NE visible
29 Nov 5.9 18:32:18 10° SW 18:36:20 37° WNW 18:39:00 19° N visible
30 Nov 5.1 17:06:19 10° S 17:10:18 36° ESE 17:14:19 10° NE visible
30 Nov 6.8 18:45:30 10° WSW 18:48:55 22° WNW 18:51:47 13° NNW visible
01 Dec 4.5 17:18:18 10° S 17:22:37 67° ESE 17:26:57 10° NNE visible
01 Dec 7.3 18:59:21 10° W 19:01:37 14° NW 19:03:52 10° NNW visible
02 Dec 4.8 17:30:40 10° SSW 17:34:59 68° WNW 17:39:22 10° NNE visible
03 Dec 5.9 17:43:24 10° SW 17:47:28 38° WNW 17:51:35 10° N visible
04 Dec 6.7 17:56:34 10° WSW 18:00:03 23° WNW 18:03:33 10° N visible
05 Dec 7.2 18:10:22 10° W 18:12:43 14° NW 18:15:06 10° NNW visible
07 Dec 5.8 16:54:30 10° SW 16:58:36 39° WNW 17:02:44 10° N visible
08 Dec 6.7 17:07:38 10° WSW 17:11:10 24° WNW 17:14:44 10° N visible
